Location: Blangy-Tronville
(49.8790°N, 2.4226°E)
Time: 02:06:36
(UTC+00:00)

Cosmos 1869 - Pass Details

Date: 18 November 2025
Orbit: 453 x 482 km, 82.5° (Epoch: 04 December)

Event Time Altitude Azimuth Distance (km) Brightness Sun altitude
Rises 16:40:28 0° 160° (SSE) 2,486 6.7 -6.3°
Reaches altitude 10° 16:42:46 10° 147° (SSE) 1,611 5.6 -6.6°
Maximum altitude 16:45:42 25° 90° (E) 965 4.1 -7.0°
Drops below altitude 10° 16:48:38 10° 34° (NE) 1,611 5.2 -7.5°
Enters shadow 16:50:29 - 23° (NNE) 2,307 6.1 -7.8°
